Regional Weather Roundup
Issued by NWS

Home | Current Version | Previous Version | Text Only | Print | Product List | Glossary On
Versions: 1 2 3 4 5 6 7 8 9 10 11 12 13 14 15 16 17 18 19 20 21 22 23 24 25 26 27 28 29 30 31 32 33 34 35 36 37 38 39 40 41 42 43 44 45 46 47 48 49 50
000
ASUS42 KKEY 261510
RWRKEY

FLORIDA REGIONAL WEATHER ROUNDUP FOR THE FLORIDA KEYS
NATIONAL WEATHER SERVICE KEY WEST FLORIDA
1100 AM EDT TUE MAY 26 2015

...SOUTH FLORIDA AND THE KEYS...

CITY           SKY/WX    TMP DP  RH WIND       PRES   REMARKS
FORT MYERS     MOSUNNY   87  72  60 SE13      30.16F HX  93
SW REGIONAL AP MOSUNNY   86  71  60 E16       30.17F HX  91
NAPLES         PTSUNNY   85  72  65 E10       30.17F HX  91
MIAMI          PTSUNNY   87  70  56 E17G24    30.19R HX  92
WEST KENDALL   MOSUNNY   87  72  60 E17       30.18S HX  93
HOMESTEAD      SUNNY     85  71  62 E15       30.18S HX  90
MARATHON       MOSUNNY   86  74  67 E12G17    30.16S HX  94
BOCA CHICA NAS PTSUNNY   85  74  69 E17       30.15S HX  92
KEY WEST INTL  SUNNY     85  73  67 E17       30.15S HX  91

...INTERNATIONAL WEATHER...

CITY           SKY/WX    TMP DP  RH WIND       PRES   REMARKS
NASSAU BAHAMAS PTSUNNY   84  72  65 E12       30.19S
CANCUN MEXICO  MOSUNNY   86  75  70 E13       30.05S HX  95
COZUMEL MEXICO MOSUNNY   84  73  70 SE13      30.05R HX  91

ADJACENT COASTAL WATERS...

STATION/POSITION TIME  SKY/WX   TEMP    WIND        PRES    WAVE
                                AIR SEA DIR/SP/G            HT/PER
                 (UTC)          (F)     (DEG/KT/KT) (MB)    (FT/S)
PULASKI SHOAL LI 1400            81     150/ 16/ 17 1020.6R
SAND KEY         1450            82     110/ 18/ 20 1020.7S
SOMBRERO KEY     1500            82     100/ 19/ 20 1021.7R
LONG KEY         1400            81 83  110/ 17/ 19 1022.2R
MOLASSES REEF    1500            81 83  110/ 15/ 16 1021.7R
FOWEY ROCKS      NOT AVBL

$$


USA.gov is the U.S. government's official web portal to all federal, state and local government web resources and services.